ES2JT Weather Reports


time (UTC)temp
C
wind
direction
speed
KPH
gust
KPH
rain 1hr
cm
rain 24hr
cm
rain mn
cm
humidity
%
barometer
mb
20260508115237 18 13 11.3 17.7 0.00 0.00 0.00 25 1021.1
20260508114337 18 41 9.7 12.9 0.00 0.00 0.00 24 1021.2
20260508113437 18 43 8.0 12.9 0.00 0.00 0.00 23 1021.3
20260508112539 18 23 9.7 12.9 0.00 0.00 0.00 24 1021.2
20260508111637 18 50 9.7 12.9 0.00 0.00 0.00 24 1021.1
20260508110737 18 46 8.0 14.5 0.00 0.00 0.00 26 1021.0
20260508105838 17 12 11.3 14.5 0.00 0.00 0.00 25 1021.1
20260508104938 18 38 11.3 14.5 0.00 0.00 0.00 26 1021.3
20260508104039 18 33 11.3 14.5 0.00 0.00 0.00 27 1021.0
20260508103137 17 23 11.3 14.5 0.00 0.00 0.00 26 1021.0
20260508102237 17 38 11.3 14.5 0.00 0.00 0.00 23 1021.2
20260508101338 16 13 12.9 16.1 0.00 0.00 0.00 30 1021.1
20260508100437 16 45 12.9 16.1 0.00 0.00 0.00 25 1021.1
20260508095753 16 46 12.9 16.1 0.00 0.00 0.00 26 1021.0
20260508094637 16 10 11.3 12.9 0.00 0.00 0.00 30 1021.3
20260508093737 16 42 11.3 14.5 0.00 0.00 0.00 29 1021.0
20260508092838 16 33 11.3 12.9 0.00 0.00 0.00 30 1021.2
20260508092147 16 20 11.3 16.1 0.00 0.00 0.00 33 1021.2
20260508091039 15 22 11.3 14.5 0.00 0.00 0.00 34 1021.0
20260508090138 15 353 9.7 12.9 0.00 0.00 0.00 36 1021.1
20260508085237 15 40 11.3 12.9 0.00 0.00 0.00 33 1021.2
20260508084338 15 51 11.3 14.5 0.00 0.00 0.00 35 1021.3
20260508083438 15 48 11.3 12.9 0.00 0.00 0.00 33 1021.4
20260508082539 14 42 11.3 14.5 0.00 0.00 0.00 36 1021.4
20260508081637 14 11 11.3 12.9 0.00 0.00 0.00 38 1021.2
20260508080737 13 355 12.9 14.5 0.00 0.00 0.00 41 1021.3
20260508080049 12 9 11.3 14.5 0.00 0.00 0.00 42 1020.9
20260508074937 13 354 11.3 12.9 0.00 0.00 0.00 43 1021.1
20260508074039 13 359 11.3 14.5 0.00 0.00 0.00 42 1020.8
20260508073137 13 4 12.9 14.5 0.00 0.00 0.00 43 1020.8
20260508072448 13 4 12.9 14.5 0.00 0.00 0.00 44 1020.7
20260508071338 13 346 11.3 16.1 0.00 0.00 0.00 44 1020.8
20260508070648 12 30 12.9 17.7 0.00 0.00 0.00 46 1020.4
20260508065538 12 5 12.9 16.1 0.00 0.00 0.00 44 1020.5
20260508064638 12 28 14.5 17.7 0.00 0.00 0.00 42 1020.5
20260508063950 13 9 12.9 16.1 0.00 0.00 0.00 44 1020.4
20260508062837 12 20 12.9 16.1 0.00 0.00 0.00 45 1020.5
20260508061938 12 10 12.9 17.7 0.00 0.00 0.00 46 1020.0
20260508061247 11 357 14.5 17.7 0.00 0.00 0.00 48 1020.2
20260508060137 11 342 12.9 17.7 0.00 0.00 0.00 46 1019.9
20260508055237 11 10 16.1 22.5 0.00 0.00 0.00 48 1019.8
20260508054337 11 18 14.5 20.9 0.00 0.00 0.00 46 1019.7
20260508053437 11 323 17.7 20.9 0.00 0.00 0.00 47 1019.8
20260508052539 11 342 14.5 22.5 0.00 0.00 0.00 50 1019.5
20260508051637 10 348 12.9 19.3 0.00 0.00 0.00 53 1019.6
20260508050737 10 325 12.9 19.3 0.00 0.00 0.00 53 1019.2
20260508050050 10 331 11.3 14.5 0.00 0.00 0.00 58 1019.2
20260508044938 8 345 12.9 19.3 0.00 0.00 0.00 63 1019.1
20260508044039 7 4 11.3 19.3 0.00 0.00 0.00 63 1019.0
20260508043138 7 349 11.3 16.1 0.00 0.00 0.00 63 1018.8
20260508042237 7 357 14.5 17.7 0.00 0.00 0.00 63 1018.7
20260508041337 7 11 12.9 17.7 0.00 0.00 0.00 63 1018.6
20260508040437 7 360 12.9 16.1 0.00 0.00 0.00 62 1018.7
20260508035752 7 339 12.9 16.1 0.00 0.00 0.00 62 1018.3
20260508034638 7 351 9.7 12.9 0.00 0.00 0.00 65 1018.2
20260508033738 7 355 12.9 16.1 0.00 0.00 0.00 65 1018.0
20260508032838 7 336 9.7 16.1 0.00 0.00 0.00 68 1017.9
20260508031937 6 355 8.0 12.9 0.00 0.00 0.00 70 1018.0
20260508031249 6 359 8.0 12.9 0.00 0.00 0.00 72 1018.0
20260508030351 6 340 6.4 8.0 0.00 0.00 0.00 74 1017.6
20260508025237 5 347 6.4 11.3 0.00 0.00 0.00 77 1017.5
20260508024551 4 345 6.4 11.3 0.00 0.00 0.00 77 1017.6
20260508023438 4 329 6.4 12.9 0.00 0.00 0.00 77 1017.4
20260508022539 3 346 8.0 12.9 0.00 0.00 0.00 77 1017.4
20260508021637 3 349 8.0 12.9 0.00 0.00 0.00 78 1017.0
20260508020737 3 358 6.4 12.9 0.00 0.00 0.00 78 1016.8
20260508020047 3 330 8.0 12.9 0.00 0.00 0.00 77 1016.7
20260508014937 3 329 6.4 8.0 0.00 0.00 0.00 77 1016.5
20260508014037 3 320 4.8 6.4 0.00 0.00 0.00 76 1016.4
20260508013138 3 314 6.4 11.3 0.00 0.00 0.00 76 1016.4
20260508012237 3 316 6.4 11.3 0.00 0.00 0.00 76 1016.2
20260508011549 3 335 4.8 6.4 0.00 0.00 0.00 75 1016.2
20260508010437 3 301 4.8 6.4 0.00 0.00 0.00 74 1016.2
20260508005538 3 351 4.8 6.4 0.00 0.00 0.00 73 1016.0
20260508004637 3 337 3.2 8.0 0.00 0.00 0.00 71 1015.7
20260508003738 4 343 4.8 9.7 0.00 0.00 0.00 71 1016.1
20260508002837 4 339 6.4 8.0 0.00 0.00 0.00 71 1015.7
20260508002148 5 333 6.4 8.0 0.00 0.00 0.00 70 1015.8
20260508001250 5 303 6.4 6.4 0.00 0.00 0.00 69 1015.6
20260508000137 5 320 8.0 12.9 0.00 0.00 0.00 67 1015.3
20260507235237 5 333 6.4 9.7 0.00 0.00 0.00 67 1015.4
20260507234337 5 338 6.4 9.7 0.00 0.00 0.00 66 1015.3
20260507233437 5 336 6.4 9.7 0.00 0.00 0.00 65 1014.9
20260507232539 5 351 6.4 9.7 0.00 0.00 0.00 64 1014.8
20260507231637 5 355 6.4 6.4 0.00 0.00 0.00 63 1014.9
20260507230738 5 351 6.4 12.9 0.00 0.00 0.00 63 1014.7
20260507225837 5 10 9.7 12.9 0.00 0.00 0.00 62 1014.4
20260507224937 5 345 9.7 12.9 0.00 0.00 0.00 63 1014.3
20260507224038 5 350 11.3 14.5 0.00 0.00 0.00 65 1014.2
20260507223137 5 357 12.9 17.7 0.00 0.00 0.00 70 1014.4
20260507222237 3 325 11.3 14.5 0.00 0.00 0.00 80 1014.1
20260507221338 2 330 9.7 14.5 0.00 0.00 0.00 79 1014.0
20260507220437 1 280 6.4 6.4 0.00 0.00 0.00 79 1013.8
20260507215539 1 184 3.2 3.2 0.00 0.00 0.00 78 1013.9
20260507214638 1 179 3.2 3.2 0.00 0.00 0.00 76 1013.8
20260507213950 1 166 3.2 3.2 0.00 0.00 0.00 76 1013.7
20260507212837 2 201 3.2 3.2 0.00 0.00 0.00 75 1013.5
20260507211937 2 246 3.2 6.4 0.00 0.00 0.00 74 1013.2
20260507211039 2 224 4.8 4.8 0.00 0.00 0.00 73 1013.1
20260507210137 2 209 3.2 4.8 0.00 0.00 0.00 72 1013.0
20260507205238 1 251 3.2 4.8 0.00 0.00 0.00 71 1012.9
20260507204337 1 209 3.2 3.2 0.00 0.00 0.00 71 1012.8
20260507203437 2 215 3.2 4.8 0.00 0.00 0.00 69 1012.4
20260507202749 2 209 3.2 3.2 0.00 0.00 0.00 68 1012.6
20260507201637 2 222 3.2 3.2 0.00 0.00 0.00 67 1012.4
20260507200738 2 225 3.2 3.2 0.00 0.00 0.00 66 1012.5
20260507195837 2 190 4.8 4.8 0.00 0.00 0.00 65 1012.4
20260507194937 2 211 4.8 4.8 0.00 0.00 0.00 65 1012.1
20260507183835 5 221 1.6 3.2 0.00 0.00 0.00 52 1012.0
20260507182726 6 280 1.6 3.2 0.00 0.00 0.00 49 1011.8
20260507181826 7 316 4.8 8.0 0.00 0.00 0.00 48 1011.6
20260507180925 7 307 4.8 6.4 0.00 0.00 0.00 46 1011.6
20260507180240 8 308 4.8 8.0 0.00 0.00 0.00 45 1011.5
20260507175337 8 310 8.0 12.9 0.00 0.00 0.00 45 1011.5
20260507174226 9 310 4.8 6.4 0.00 0.00 0.00 44 1011.4
20260507173325 10 319 6.4 6.4 0.00 0.00 0.00 38 1011.2
20260507172426 11 317 6.4 8.0 0.00 0.00 0.00 34 1011.2
20260507171525 11 320 4.8 8.0 0.00 0.00 0.00 32 1010.9
20260507170626 11 323 4.8 8.0 0.00 0.00 0.00 32 1011.2
20260507165727 11 323 6.4 6.4 0.00 0.00 0.00 32 1010.8
20260507164826 11 330 4.8 8.0 0.00 0.00 0.00 33 1010.7
20260507163925 11 341 4.8 6.4 0.00 0.00 0.00 32 1010.9
20260507163025 12 350 6.4 8.0 0.00 0.00 0.00 31 1010.7
20260507162335 12 332 6.4 9.7 0.00 0.00 0.00 31 1010.8
20260507161227 13 345 9.7 11.3 0.00 0.00 0.00 32 1010.5
20260507160326 12 344 8.0 12.9 0.00 0.00 0.00 33 1010.4
20260507155426 12 6 9.7 12.9 0.00 0.00 0.00 34 1010.5
20260507154526 12 6 9.7 14.5 0.00 0.00 0.00 35 1010.5
20260507153625 12 358 9.7 12.9 0.00 0.00 0.00 35 1010.5
20260507152726 12 360 11.3 14.5 0.00 0.00 0.00 36 1010.8
20260507152037 12 24 9.7 14.5 0.00 0.00 0.00 36 1010.5
20260507150926 12 22 9.7 12.9 0.00 0.00 0.00 31 1010.3
20260507150025 12 65 9.7 14.5 0.00 0.00 0.00 29 1010.5
20260507145339 13 53 9.7 16.1 0.00 0.00 0.00 32 1010.5
20260507144226 15 27 11.3 14.5 0.00 0.00 0.00 30 1010.5
20260507143325 15 41 11.3 16.1 0.00 0.00 0.00 31 1010.4
20260507142425 14 18 12.9 16.1 0.00 0.00 0.00 33 1010.7
20260507141526 15 6 12.9 16.1 0.00 0.00 0.00 31 1010.5
20260507140625 16 7 12.9 16.1 0.00 0.00 0.00 30 1010.5
20260507135727 16 14 12.9 14.5 0.00 0.00 0.00 31 1010.5
20260507134826 17 14 11.3 14.5 0.00 0.00 0.00 31 1010.6
20260507133925 16 10 12.9 16.1 0.00 0.00 0.00 34 1010.6
20260507133025 16 30 12.9 16.1 0.00 0.00 0.00 36 1010.4
20260507132125 16 32 14.5 17.7 0.00 0.00 0.00 35 1010.6
20260507131226 17 12 12.9 16.1 0.00 0.00 0.00 38 1010.4
20260507130325 17 17 12.9 16.1 0.00 0.00 0.00 39 1010.4
20260507125639 16 28 12.9 17.7 0.00 0.00 0.00 39 1010.5
20260507124526 16 11 16.1 20.9 0.00 0.00 0.00 39 1010.4
20260507123626 16 2 16.1 19.3 0.00 0.00 0.00 38 1010.5
20260507122727 16 33 16.1 20.9 0.00 0.00 0.00 40 1010.3
20260507121826 16 43 16.1 19.3 0.00 0.00 0.00 35 1010.2
20260507120925 16 349 12.9 17.7 0.00 0.00 0.00 39 1010.3
20260507120026 16 23 12.9 17.7 0.00 0.00 0.00 38 1010.3